JP3QZN-13 Weather Reports


time (UTC)temp
F
wind
direction
speed
knots
gust
knots
rain 1hr
in
rain 24hr
in
rain mn
in
humidity
%
barometer
mb
20260509110028 71 292 0.0 0.0 0.00 0.00 0.00 41 1019.3
20260509103027 73 337 2.6 0.0 0.00 0.00 0.00 38 1019.2
20260509100027 74 315 0.9 0.0 0.00 0.00 0.00 36 1018.7
20260509093026 76 292 0.0 0.0 0.00 0.00 0.00 35 1018.5
20260509090025 78 315 4.3 0.0 0.00 0.00 0.00 33 1018.2
20260509083025 79 0 4.3 0.0 0.00 0.00 0.00 34 1018.0
20260509080024 79 315 1.7 0.0 0.00 0.00 0.00 33 1017.9
20260509073023 78 292 7.8 0.0 0.00 0.00 0.00 32 1017.7
20260509070022 78 292 4.3 0.0 0.00 0.00 0.00 33 1017.5
20260509063021 79 247 0.0 0.0 0.00 0.00 0.00 33 1017.9
20260509060020 79 292 1.7 0.0 0.00 0.00 0.00 32 1017.9
20260509053020 80 225 0.0 0.0 0.00 0.00 0.00 31 1018.0
20260509043019 79 337 3.5 0.0 0.00 0.00 0.00 35 1018.6
20260509040018 78 270 2.6 0.0 0.00 0.00 0.00 35 1019.1
20260509033017 79 270 5.2 0.0 0.00 0.00 0.00 34 1019.3
20260509030016 79 292 7.0 0.0 0.00 0.00 0.00 35 1019.4
20260509023015 80 292 1.7 0.0 0.00 0.00 0.00 34 1019.9
20260509020014 79 337 2.6 0.0 0.00 0.00 0.00 36 1020.5
20260509013014 78 225 1.7 0.0 0.00 0.00 0.00 36 1020.9
20260509010013 78 225 6.1 0.0 0.00 0.00 0.00 37 1021.6
20260509003012 76 270 2.6 0.0 0.00 0.00 0.00 38 1022.0
20260509000030 73 202 0.0 0.0 0.00 0.00 0.00 42 1022.4
20260508233029 69 292 1.7 0.0 0.00 0.00 0.00 46 1023.0
20260508230028 68 337 4.3 0.0 0.00 0.00 0.00 48 1023.6
20260508223028 64 315 3.5 0.0 0.00 0.00 0.00 51 1023.8
20260508220027 61 315 1.7 0.0 0.00 0.00 0.00 52 1024.1
20260508215628 61 67 0.0 0.0 0.00 0.00 0.00 53 1024.2
20260508215556 65 337 1.7 0.0 0.00 0.00 0.00 48 1015.5
20260508130009 65 337 1.7 0.0 0.00 0.00 0.00 48 1015.5
20260508123008 65 225 0.0 0.0 0.00 0.00 0.00 49 1015.1
20260508120007 66 292 8.7 0.0 0.00 0.00 0.00 51 1014.2
20260508113006 67 337 7.0 0.0 0.00 0.00 0.00 54 1013.4